Location: Sungai Dangang
(2.7500°N, 113.8333°E)
Time: 05:00:11
(UTC+00:00)

USA 215 - Pass Details

Date: 16 May 2021
Orbit: 1100 x 1107 km, 123.0° (Epoch: 14 June)

Event Time Altitude Azimuth Distance (km) Brightness Sun altitude
Rises 19:10:02 0° 126° (SE) 3,915 6.4 -43.0°
Reaches altitude 10° 19:12:43 10° 118° (ESE) 2,955 5.8 -42.4°
Maximum altitude 19:18:37 37° 52° (NE) 1,634 4.4 -41.1°
Enters shadow 19:20:03 33° 26° (NNE) 1,738 4.5 -40.8°
Exits shadow 19:21:39 25° 5° (N) 2,065 4.9 -40.5°
Drops below altitude 10° 19:24:30 10° 348° (NNW) 2,945 5.6 -39.8°
Sets 19:27:09 0° 340° (NNW) 3,901 6.2 -39.3°
